AIC5UZ VOMM-VOMD

Flight info

Callsign AIC5UZ
Flight time N/A
Altitude 30000
Route TEGUT2B/25 TEGUT R457 MDI
Aircraft A320/M-SDE3FGHIRWY/LB1

Departure

Time N/A
Airport Chennai International Airport (VOMM)

Arrival

Time 2026-04-30 18:18
Airport Madurai Airport (VOMD)
Time Latitude Longitude Altitude Speed Heading
2026-04-30 17:39 12.88246 79.89706 10343 ft 309 kts 240°
2026-04-30 17:41 12.79339 79.73452 14959 ft 366 kts 231°
2026-04-30 17:42 12.75355 79.70197 16103 ft 374 kts 205°
2026-04-30 17:42 12.67943 79.67275 17864 ft 385 kts 201°
2026-04-30 17:43 12.62908 79.65305 18908 ft 391 kts 201°
2026-04-30 17:44 12.55223 79.62307 20513 ft 397 kts 202°
2026-04-30 17:44 12.47430 79.59277 22117 ft 403 kts 202°
2026-04-30 17:46 12.34119 79.54094 24410 ft 416 kts 202°
2026-04-30 17:47 12.23188 79.49847 25900 ft 426 kts 202°
2026-04-30 17:48 12.11981 79.45499 27309 ft 435 kts 202°
2026-04-30 17:48 12.03425 79.42181 28289 ft 441 kts 202°
2026-04-30 17:49 11.91861 79.37687 29495 ft 451 kts 202°
2026-04-30 17:50 11.80319 79.33238 29910 ft 422 kts 202°
2026-04-30 17:52 11.64041 79.26924 29902 ft 416 kts 202°
2026-04-30 17:53 11.51470 79.20247 29895 ft 413 kts 214°
2026-04-30 17:54 11.42566 79.14535 29886 ft 413 kts 214°
2026-04-30 17:56 11.23109 79.02078 29879 ft 413 kts 213°
2026-04-30 17:57 11.15806 78.97409 29587 ft 406 kts 213°
2026-04-30 17:58 11.08738 78.92885 28801 ft 399 kts 213°
2026-04-30 17:59 10.99413 78.86929 27803 ft 392 kts 213°
2026-04-30 18:00 10.90319 78.81118 26431 ft 380 kts 213°
2026-04-30 18:00 10.83636 78.76856 25057 ft 376 kts 213°
2026-04-30 18:01 10.79205 78.74025 24107 ft 375 kts 212°
2026-04-30 18:02 10.72652 78.69740 22586 ft 373 kts 214°
2026-04-30 18:02 10.66238 78.65337 21153 ft 368 kts 214°
2026-04-30 18:03 10.59867 78.61016 19775 ft 365 kts 213°
2026-04-30 18:04 10.53583 78.56760 18426 ft 363 kts 213°
2026-04-30 18:05 10.45249 78.51099 16619 ft 357 kts 213°
2026-04-30 18:06 10.37055 78.45552 14954 ft 350 kts 213°
2026-04-30 18:07 10.29030 78.40139 13294 ft 346 kts 212°
2026-04-30 18:08 10.23094 78.36123 12139 ft 337 kts 212°
2026-04-30 18:09 10.15400 78.30920 10289 ft 321 kts 212°
2026-04-30 18:10 10.08488 78.26256 8653 ft 276 kts 212°
2026-04-30 18:11 10.02173 78.21995 7088 ft 272 kts 212°
2026-04-30 18:11 9.97081 78.20968 5814 ft 271 kts 144°
2026-04-30 18:12 9.92940 78.24707 4681 ft 254 kts 150°
2026-04-30 18:13 9.90054 78.26205 4426 ft 213 kts 160°
2026-04-30 18:13 9.86734 78.26557 4224 ft 167 kts 202°
2026-04-30 18:14 9.84809 78.24779 4076 ft 165 kts 244°
2026-04-30 18:15 9.84331 78.21321 3495 ft 165 kts 263°
2026-04-30 18:15 9.84094 78.17689 1890 ft 171 kts 265°
2026-04-30 18:16 9.83920 78.15501 1500 ft 144 kts 264°
2026-04-30 18:16 9.83770 78.13523 1106 ft 140 kts 265°
2026-04-30 18:17 9.83697 78.12539 944 ft 139 kts 266°
2026-04-30 18:17 9.83627 78.11571 783 ft 139 kts 266°
2026-04-30 18:17 9.83481 78.09647 445 ft 124 kts 266°
2026-04-30 18:18 9.83445 78.09108 437 ft 37 kts 264°
2026-04-30 18:18 9.83478 78.09004 439 ft 14 kts 310°
2026-04-30 18:18 9.83513 78.08957 436 ft 0 kts 302°